This is the latest recevied weather packets stored in our database for station/object DM4XI-13. If no packets are shown the sender has not sent any weather packets the latest 10 day(s).
| Time | Temp. | Humidity | Pressure | Rain* | Wind** | Luminosity | Snow |
|---|---|---|---|---|---|---|---|
| 1777149150 | 12.22° C | 39% | 1014.4 hPa | 0 mm | 0.45 m/s, 218° | 0 W/m² | - |
| 1777149090 | 12.22° C | 38% | 1014.4 hPa | 0 mm | 0.45 m/s, 218° | 0 W/m² | - |
| 1777149029 | 12.22° C | 38% | 1014.3 hPa | 0 mm | 0.45 m/s, 212° | 0 W/m² | - |
| 1777148968 | 12.78° C | 38% | 1014.4 hPa | 0 mm | 0.45 m/s, 225° | 0 W/m² | - |
| 1777148907 | 12.78° C | 38% | 1014.5 hPa | 0 mm | 0.45 m/s, 219° | 0 W/m² | - |
| 1777148845 | 12.78° C | 38% | 1014.2 hPa | 0 mm | 0.89 m/s, 264° | 0 W/m² | - |
| 1777148785 | 12.78° C | 38% | 1014.4 hPa | 0 mm | 0 m/s | 0 W/m² | - |
| 1777148723 | 12.78° C | 39% | 1014.4 hPa | 0 mm | 0.45 m/s, 238° | 0 W/m² | - |
| 1777148662 | 12.78° C | 38% | 1014.4 hPa | 0 mm | 0.45 m/s, 224° | 0 W/m² | - |
| 1777148602 | 12.78° C | 38% | 1014.3 hPa | 0 mm | 0.89 m/s, 261° | 0 W/m² | - |
| 1777148541 | 12.78° C | 38% | 1014.5 hPa | 0 mm | 0.89 m/s, 282° | 0 W/m² | - |
| 1777148480 | 12.78° C | 38% | 1014.3 hPa | 0 mm | 0.89 m/s, 258° | 0 W/m² | - |
| 1777148419 | 12.78° C | 38% | 1014.4 hPa | 0 mm | 0.45 m/s, 263° | 0 W/m² | - |
| 1777148357 | 12.78° C | 38% | 1014.3 hPa | 0 mm | 0.89 m/s, 244° | 0 W/m² | - |
| 1777148296 | 12.78° C | 39% | 1014.2 hPa | 0 mm | 0.45 m/s, 282° | 0 W/m² | - |
| 1777148236 | 12.78° C | 39% | 1014.3 hPa | 0 mm | 0.45 m/s, 235° | 0 W/m² | - |
| 1777148174 | 12.78° C | 38% | 1014.3 hPa | 0 mm | 0.45 m/s, 288° | 0 W/m² | - |
| 1777148113 | 12.78° C | 39% | 1014.4 hPa | 0 mm | 0.89 m/s, 212° | 0 W/m² | - |
| 1777148052 | 12.78° C | 39% | 1014.3 hPa | 0 mm | 0.45 m/s, 219° | 0 W/m² | - |
| 1777147992 | 12.78° C | 38% | 1014.4 hPa | 0 mm | 0.45 m/s, 277° | 0 W/m² | - |
| 1777147931 | 13.33° C | 38% | 1014.3 hPa | 0 mm | 0.45 m/s, 229° | 0 W/m² | - |
| 1777147869 | 13.33° C | 38% | 1014.2 hPa | 0 mm | 0.89 m/s, 250° | 0 W/m² | - |
| 1777147808 | 13.33° C | 37% | 1014.4 hPa | 0 mm | 0.45 m/s, 285° | 0 W/m² | - |
| 1777147748 | 13.33° C | 37% | 1014.3 hPa | 0 mm | 0.45 m/s, 216° | 0 W/m² | - |
| 1777147686 | 13.33° C | 37% | 1014.3 hPa | 0 mm | 0.89 m/s, 268° | 0 W/m² | - |
* Rain latest hour (hover to see other rain measurements)
** Current wind speed in m/s (hover to see current wind gust speed)